[[{"header":{"parameterUnit":"m.s-1","parameterCategory":1,"la1":30.2991,"la2":30.254,"lo1":-89.0895,"lo2":-89.0444,"dx":0.0017,"dy":0.0017,"nx":28,"ny":28,"refTime":"2023-01-21T15:00:00:Z","depth":0,"parameterNumber":2,"parameterNumberName":"U-component_of_WINDS"},"data":[0,0,0,0,0,0,0,0,0,0,0,0,0,0,0,0,0,0,0,0,0,0,0,0,0,0,0,0,0,0,0,0,0,0,0,0,0,0,0,0,0,0,0,0,0,0,0,0,0,0,0,0,0,0,0,0,0,0,5.863,5.8631,0,5.8758,5.876,5.8761,5.8703,5.8699,5.8696,5.8693,5.8825,5.8832,5.8838,0,0,0,0,0,0,0,0,0,0,0,0,0,5.8335,5.8341,5.863,5.8631,5.8633,5.8758,5.876,5.8762,5.8703,5.8699,5.8695,5.8692,5.8823,5.8831,5.8839,0,0,0,0,0,0,0,0,0,0,0,0,0,5.8463,5.8343,5.8629,5.8619,5.8619,5.8758,5.876,5.8762,5.8704,5.8699,5.8694,5.869,5.8821,5.883,5.884,5.8997,0,0,5.887,5.8874,0,0,0,0,0,0,0,0,5.8456,5.8474,5.8619,5.862,5.862,5.8709,5.8704,5.8841,5.8705,5.8672,5.8693,5.8687,5.8791,5.8803,5.8837,5.9003,5.9009,5.8871,5.8877,5.8881,5.8884,0,0,0,0,0,0,0,5.8447,5.8468,5.8681,5.8621,5.8622,5.8608,5.8621,5.873,5.8757,5.8674,5.867,5.8686,5.879,5.8828,5.884,5.9011,5.887,5.8879,5.8885,5.8889,5.9313,5.9318,0,0,0,0,0,0,5.8438,5.8461,5.8676,5.8684,5.8525,5.8617,5.8632,5.8686,5.8755,5.8761,5.869,5.8683,5.8814,5.8829,5.8845,5.9034,5.8881,5.889,5.8896,5.9308,5.9314,5.932,0,0,0,0,0,0,5.8432,5.8458,5.8671,5.8572,5.8598,5.8628,5.8689,5.8691,5.8729,5.8768,5.8772,5.8724,5.8811,5.8831,5.896,5.9038,5.8894,5.8903,5.9301,5.931,5.9317,5.9413,0,0,0,0,0,0,5.8424,5.8456,5.8516,5.8574,5.8604,5.8784,5.8693,5.8697,5.8746,5.8737,5.88,5.8806,5.8808,5.8945,5.8969,5.9049,5.8911,5.9294,5.9305,5.9315,5.9403,5.9424,5.9441,0,0,0,0,0,5.8414,5.8538,5.8519,5.8545,5.8678,5.8789,5.8806,5.8806,5.8752,5.8813,5.8838,5.8804,5.9025,5.8959,5.8986,5.9069,5.9289,5.9302,5.9314,5.9395,5.942,5.9441,0,0,0,0,0,0,5.8488,5.8545,5.8525,5.8671,5.8726,5.8779,5.8855,5.8832,5.8903,5.8892,5.8889,5.8904,5.9038,5.9066,5.8991,5.9225,5.9149,5.9167,5.9202,5.9226,5.9244,5.9235,5.8919,0,0,0,0,0,5.8522,5.8606,5.8651,5.8776,5.8804,5.8825,5.8873,5.8868,5.8925,5.8947,5.8982,5.9038,5.912,5.9174,5.9252,5.9407,5.942,5.9477,5.9496,5.9512,5.9527,5.9613,5.9639,5.936,5.936,5.936,0,0,5.8591,5.8633,5.8686,5.8792,5.8833,5.8922,5.8845,5.8941,5.9007,5.8962,5.9086,5.9114,5.9176,5.9319,5.9384,5.9347,5.9607,5.9527,5.9539,5.9547,5.9628,5.9654,5.9678,5.9368,5.9367,5.9365,0,0,5.8764,5.8804,5.8912,5.8956,5.902,5.9033,5.9059,5.9116,5.9133,5.9257,5.9226,5.9304,5.9445,5.9492,5.9534,5.9725,5.9698,5.9751,5.985,5.9933,5.9955,5.9974,6.0044,6.0069,5.9766,5.9767,5.9767,0,5.8843,5.8974,5.8971,5.9071,5.9118,5.9082,5.9193,5.9235,5.9321,5.9356,5.9313,5.949,5.953,5.9684,5.9731,5.9766,5.9796,5.9744,5.9952,5.9972,5.999,6.0056,6.0082,5.9773,5.9772,5.9771,5.9771,0,5.9069,5.916,5.924,5.9325,5.9382,5.9486,5.95,5.9558,5.9548,5.9567,5.9694,5.9741,5.9828,5.9864,5.9855,6.0017,5.9993,5.9951,5.9875,6.0022,6.0085,6.011,5.9781,5.9779,5.9777,5.9776,0,0,5.9291,5.9374,5.9403,5.9442,5.951,5.9581,5.9684,5.9769,5.982,5.9881,5.9968,6.0089,6.0052,6.0099,6.0096,6.0169,6.0319,6.0119,6.012,6.0155,6.0502,6.0533,6.0562,6.0301,6.0306,6.031,6.0497,0,5.947,5.965,5.9651,5.9818,5.9903,5.9871,5.9961,6.0013,6.0033,6.0109,6.013,6.0217,6.016,6.0189,6.026,6.0286,6.0389,6.0273,6.0383,6.0387,6.0369,6.0595,6.0628,6.0802,6.0521,6.0525,6.0528,0,5.9702,5.9771,5.9946,6.0003,6.0039,6.012,6.0199,6.0271,6.033,6.034,6.0394,6.038,6.0486,6.0406,6.0553,6.0474,6.0519,6.0539,6.0546,6.0557,6.0467,6.0613,6.0858,6.0884,6.0566,6.0563,6.0561,0,5.9848,5.9985,6.0108,6.0141,6.0211,6.0269,6.03,6.0354,6.0406,6.0475,6.0509,6.0589,6.0633,6.0696,6.0705,6.0646,6.0853,6.0773,6.0864,6.0864,6.091,6.0907,6.1166,6.0938,6.0938,6.0937,6.0937,0,6.0048,6.0157,6.0174,6.025,6.0372,6.0372,6.0492,6.0519,6.0568,6.0649,6.0625,6.0702,6.0708,6.0787,6.0794,6.0915,6.0935,6.0946,6.0947,6.0949,6.0948,6.0979,6.0967,6.0944,6.0942,6.0941,6.094,0,6.0232,6.0248,6.038,6.0435,6.0452,6.0539,6.0586,6.0659,6.0677,6.0779,6.0804,6.0832,6.0924,6.0938,6.1046,6.1051,6.1196,6.1184,6.1177,6.1175,6.1266,6.1257,6.1555,6.1594,6.1339,6.1342,6.1344,0,6.0359,6.0442,6.0506,6.0559,6.0593,6.0678,6.0731,6.0734,6.079,6.0864,6.0928,6.1018,6.1089,6.1238,6.1268,6.1351,6.1341,6.144,6.1353,6.1353,6.1344,6.1339,6.1348,6.1457,6.1459,6.1462,6.1464,0,6.0583,6.0587,6.0663,6.0743,6.0807,6.087,6.0929,6.0974,6.0985,6.1049,6.1143,6.1199,6.1309,6.1399,6.1481,6.1514,6.1492,6.149,6.1516,6.1519,6.1512,6.1518,6.1223,6.1484,6.1482,6.148,6.1479,6.1478,6.0743,6.0816,6.0872,6.0959,6.1004,6.106,6.1132,6.1158,6.1236,6.1327,6.1324,6.1427,6.1485,6.1593,6.1632,6.1713,6.1681,6.1718,6.1728,6.1737,6.1746,6.1498,6.1728,6.1727,6.1727,6.1726,6.1726,0,6.0966,6.1001,6.1081,6.1165,6.1233,6.1205,6.127,6.1329,6.142,6.1476,6.1547,6.1656,6.1743,6.178,6.1866,6.1924,6.1916,6.1946,6.1942,6.1951,6.1769,6.1739,6.1951,6.1951,6.1951,6.1951,6.1951,6.1951,6.1091,6.1213,6.1224,6.1368,6.1402,6.1503,6.1543,6.1595,6.1639,6.1761,6.1834,6.1857,6.1906,6.1995,6.2074,6.2083,6.2116,6.2151,6.2156,6.1986,6.1963,6.1941,6.1913,6.2158,6.2159,6.233,6.2332,6.2333]},{"header":{"parameterUnit":"m.s-1","parameterCategory":1,"la1":30.2991,"la2":30.254,"lo1":-89.0895,"lo2":-89.0444,"dx":0.0017,"dy":0.0017,"nx":28,"ny":28,"refTime":"2023-01-21T15:00:00:Z","depth":0,"parameterNumber":3,"parameterNumberName":"V-component_of_WINDS"},"data":[0,0,0,0,0,0,0,0,0,0,0,0,0,0,0,0,0,0,0,0,0,0,0,0,0,0,0,0,0,0,0,0,0,0,0,0,0,0,0,0,0,0,0,0,0,0,0,0,0,0,0,0,0,0,0,0,0,0,-2.6692,-2.6694,0,-2.6811,-2.6813,-2.6814,-2.6824,-2.6823,-2.6822,-2.6821,-2.6943,-2.6947,-2.6952,0,0,0,0,0,0,0,0,0,0,0,0,0,-2.6475,-2.6479,-2.6692,-2.6694,-2.6695,-2.6811,-2.6813,-2.6814,-2.6825,-2.6823,-2.6821,-2.682,-2.6941,-2.6947,-2.6952,0,0,0,0,0,0,0,0,0,0,0,0,0,-2.6579,-2.648,-2.6692,-2.6714,-2.6717,-2.6811,-2.6813,-2.6815,-2.6825,-2.6823,-2.6821,-2.6819,-2.694,-2.6946,-2.6953,-2.7032,0,0,-2.6973,-2.6976,0,0,0,0,0,0,0,0,-2.6573,-2.6587,-2.6709,-2.6713,-2.6717,-2.6801,-2.6781,-2.6888,-2.6825,-2.6784,-2.6821,-2.6818,-2.6897,-2.6907,-2.6934,-2.7038,-2.7043,-2.6974,-2.6978,-2.6981,-2.6982,0,0,0,0,0,0,0,-2.6566,-2.6582,-2.6739,-2.6711,-2.6716,-2.6719,-2.6731,-2.6801,-2.685,-2.6788,-2.6789,-2.6803,-2.6899,-2.6927,-2.6937,-2.7045,-2.6973,-2.6979,-2.6983,-2.6986,-2.7221,-2.7223,0,0,0,0,0,0,-2.6554,-2.6576,-2.6736,-2.6743,-2.6639,-2.6724,-2.6738,-2.6776,-2.6849,-2.6859,-2.6804,-2.6803,-2.6917,-2.6929,-2.6941,-2.704,-2.698,-2.6987,-2.6991,-2.7219,-2.7222,-2.7224,0,0,0,0,0,0,-2.655,-2.6568,-2.6731,-2.666,-2.6681,-2.673,-2.6772,-2.6779,-2.6808,-2.6862,-2.687,-2.6824,-2.6916,-2.6932,-2.701,-2.7044,-2.699,-2.6996,-2.7216,-2.722,-2.7223,-2.7237,0,0,0,0,0,0,-2.6543,-2.6567,-2.6597,-2.666,-2.6684,-2.6797,-2.6774,-2.6783,-2.6819,-2.6818,-2.6883,-2.6892,-2.6916,-2.7,-2.7016,-2.7052,-2.7001,-2.7214,-2.7218,-2.7222,-2.7233,-2.724,-2.7246,0,0,0,0,0,-2.6536,-2.6596,-2.6598,-2.6618,-2.6723,-2.6799,-2.6813,-2.6839,-2.6822,-2.6853,-2.6888,-2.689,-2.7038,-2.7008,-2.7026,-2.7065,-2.7211,-2.7217,-2.7222,-2.7231,-2.7239,-2.7246,0,0,0,0,0,0,-2.6535,-2.6605,-2.6608,-2.6691,-2.6739,-2.68,-2.684,-2.6846,-2.69,-2.6897,-2.6928,-2.6942,-2.7019,-2.705,-2.7015,-2.7146,-2.7123,-2.7132,-2.7123,-2.7131,-2.7138,-2.7129,-2.7006,0,0,0,0,0,-2.6545,-2.66,-2.6658,-2.6725,-2.6749,-2.6791,-2.6825,-2.6841,-2.6892,-2.6912,-2.6953,-2.7002,-2.706,-2.7097,-2.7154,-2.7238,-2.7253,-2.7274,-2.728,-2.7285,-2.7292,-2.734,-2.7351,-2.7241,-2.7241,-2.7241,0,0,-2.6565,-2.661,-2.6643,-2.6726,-2.6765,-2.6823,-2.6808,-2.6868,-2.6911,-2.6921,-2.6998,-2.7029,-2.7087,-2.7169,-2.7207,-2.7196,-2.7326,-2.7291,-2.7295,-2.73,-2.7347,-2.7357,-2.7366,-2.7244,-2.7244,-2.7243,0,0,-2.6631,-2.667,-2.6731,-2.6771,-2.683,-2.6858,-2.6872,-2.6934,-2.6955,-2.7032,-2.7041,-2.7093,-2.7191,-2.7232,-2.7266,-2.7349,-2.7353,-2.7367,-2.7399,-2.7446,-2.7454,-2.7462,-2.7492,-2.7503,-2.7374,-2.7374,-2.7374,0,-2.6649,-2.6735,-2.6762,-2.6823,-2.6859,-2.6872,-2.6934,-2.6971,-2.7046,-2.7071,-2.7059,-2.7184,-2.7223,-2.7315,-2.7336,-2.7362,-2.7381,-2.7359,-2.7451,-2.7459,-2.7467,-2.7496,-2.7507,-2.7375,-2.7375,-2.7375,-2.7375,0,-2.6754,-2.6814,-2.6856,-2.6928,-2.697,-2.7031,-2.7067,-2.7107,-2.7119,-2.7148,-2.7227,-2.7275,-2.7342,-2.7365,-2.7378,-2.7459,-2.7451,-2.7444,-2.7422,-2.7478,-2.7506,-2.7517,-2.7377,-2.7377,-2.7376,-2.7376,0,0,-2.6822,-2.6909,-2.6924,-2.6958,-2.7025,-2.7072,-2.7134,-2.7199,-2.7233,-2.7284,-2.7338,-2.7422,-2.7416,-2.7454,-2.7472,-2.7513,-2.7577,-2.7502,-2.7503,-2.7514,-2.7671,-2.7675,-2.7688,-2.758,-2.7582,-2.7584,-2.7666,0,-2.6896,-2.7007,-2.7034,-2.7129,-2.7185,-2.7198,-2.7252,-2.73,-2.7329,-2.7381,-2.7413,-2.7472,-2.746,-2.7484,-2.7525,-2.756,-2.7609,-2.7555,-2.763,-2.7633,-2.7616,-2.7702,-2.7707,-2.7782,-2.7677,-2.7679,-2.768,0,-2.6997,-2.7051,-2.7152,-2.7213,-2.7237,-2.7286,-2.7348,-2.7398,-2.7452,-2.7471,-2.7514,-2.7528,-2.7594,-2.7568,-2.766,-2.7623,-2.7656,-2.7678,-2.7682,-2.769,-2.766,-2.7713,-2.7807,-2.7818,-2.7698,-2.7696,-2.7695,0,-2.7038,-2.7136,-2.7209,-2.7237,-2.731,-2.7344,-2.7376,-2.7428,-2.7466,-2.7521,-2.7546,-2.7608,-2.7641,-2.7689,-2.772,-2.7698,-2.781,-2.7786,-2.7827,-2.7827,-2.785,-2.7848,-2.7951,-2.7871,-2.7871,-2.787,-2.787,0,-2.7118,-2.7179,-2.7228,-2.7273,-2.7343,-2.7373,-2.7441,-2.7473,-2.752,-2.7572,-2.7587,-2.7636,-2.7673,-2.7727,-2.7752,-2.7825,-2.784,-2.7857,-2.7863,-2.7856,-2.7854,-2.7878,-2.7874,-2.7874,-2.7873,-2.7872,-2.7872,0,-2.7174,-2.721,-2.7291,-2.7353,-2.737,-2.7419,-2.7473,-2.7517,-2.7547,-2.7613,-2.763,-2.7677,-2.7741,-2.7777,-2.7858,-2.7874,-2.7956,-2.7959,-2.7937,-2.794,-2.798,-2.7976,-2.8101,-2.812,-2.8027,-2.8028,-2.8028,0,-2.7223,-2.7271,-2.7338,-2.7374,-2.7407,-2.7465,-2.7503,-2.7535,-2.7575,-2.7642,-2.7679,-2.7744,-2.7798,-2.7901,-2.7942,-2.8005,-2.8009,-2.8049,-2.8019,-2.8011,-2.8011,-2.8008,-2.8013,-2.8054,-2.8055,-2.8056,-2.8056,0,-2.7306,-2.7322,-2.7377,-2.7439,-2.7485,-2.7535,-2.7585,-2.7614,-2.7654,-2.7699,-2.7765,-2.7807,-2.789,-2.7955,-2.8021,-2.8054,-2.8063,-2.8066,-2.8079,-2.8072,-2.8058,-2.8067,-2.7952,-2.8063,-2.8062,-2.8062,-2.8061,-2.8061,-2.7361,-2.7404,-2.7459,-2.752,-2.7561,-2.7608,-2.7653,-2.7689,-2.7745,-2.7815,-2.783,-2.79,-2.7955,-2.8044,-2.808,-2.8135,-2.8128,-2.8146,-2.8151,-2.8155,-2.8157,-2.8049,-2.8147,-2.8147,-2.8147,-2.8147,-2.8147,0,-2.7445,-2.7481,-2.7538,-2.7607,-2.7656,-2.7659,-2.7715,-2.7756,-2.7817,-2.7867,-2.792,-2.7997,-2.806,-2.8107,-2.8172,-2.8208,-2.8214,-2.8224,-2.8222,-2.823,-2.816,-2.8142,-2.8219,-2.8219,-2.8219,-2.8219,-2.8219,-2.8218,-2.7495,-2.7568,-2.7591,-2.7685,-2.7721,-2.779,-2.7821,-2.7865,-2.7905,-2.799,-2.8043,-2.8073,-2.8122,-2.8191,-2.825,-2.8262,-2.8286,-2.8296,-2.8308,-2.8242,-2.8235,-2.8227,-2.8211,-2.83,-2.8301,-2.8374,-2.8375,-2.8375]}]]